Mackay Observation History
Time Wind Speed Temp Pressure Rel. Hum Rain
04/05:00am SW 9-11 kts 10.0°c 1020.9 hPa 74% 0.0mm
04/04:30am SW 9-10 kts 10.1°c 1021.0 hPa 74% 0.0mm
04/04:00am SW 8-10 kts 10.5°c 1020.8 hPa 73% 0.0mm
04/03:30am SW 8-10 kts 10.6°c 1020.8 hPa 73% 0.0mm
04/03:00am SW 8-10 kts 10.4°c 1021.1 hPa 76% 0.0mm
04/02:30am SW 7-8 kts 10.2°c 1021.2 hPa 80% 0.0mm
04/02:00am SW 7-10 kts 10.5°c 1021.4 hPa 78% 0.0mm
04/01:30am SW 7-9 kts 11.1°c 1021.6 hPa 76% 0.0mm
04/01:00am SW 7-8 kts 11.6°c 1021.7 hPa 71% 0.0mm
04/12:30am SW 8-10 kts 11.4°c 1021.8 hPa 76% 0.0mm
04/12:00am WSW 7-9 kts 11.3°c 1022.0 hPa 80% 0.0mm
Time Wind Speed Temp Pressure Rel. Hum Rain
03/11:30pm WSW 7-9 kts 11.7°c 1022.1 hPa 78% 0.0mm
03/11:00pm SW 8-9 kts 12.2°c 1022.0 hPa 76% 0.0mm
03/10:30pm SW 9-11 kts 12.5°c 1022.0 hPa 77% 0.0mm
03/10:00pm SW 7-8 kts 13.1°c 1022.2 hPa 76% 0.0mm
03/09:30pm SW 6-8 kts 13.3°c 1022.2 hPa 77% 0.0mm
03/09:00pm SW 7-8 kts 13.9°c 1022.0 hPa 74% 0.0mm
03/08:30pm SW 7-8 kts 14.4°c 1021.9 hPa 73% 0.0mm
03/08:00pm SW 6-7 kts 14.9°c 1021.9 hPa 71% 0.0mm
03/07:30pm SSW 6-8 kts 16.0°c 1021.7 hPa 70% 0.0mm
03/07:00pm S 7-11 kts 17.2°c 1021.3 hPa 58% 0.0mm
03/06:30pm SSE 6-10 kts 17.2°c 1021.0 hPa 59% 0.0mm
03/06:00pm SSE 7-10 kts 17.5°c 1020.7 hPa 53% 0.0mm
03/05:30pm SSE 7-10 kts 17.5°c 1020.4 hPa 51% 0.0mm
03/05:00pm SE 7-11 kts 18.3°c 1020.1 hPa 52% 0.0mm
03/04:30pm SE 7-10 kts 19.0°c 1020.0 hPa 52% 0.0mm
03/04:00pm SE 7-11 kts 19.4°c 1019.9 hPa 48% 0.0mm
03/03:30pm SE 7-11 kts 19.8°c 1019.8 hPa 46% 0.0mm
03/03:00pm SE 8-13 kts 20.2°c 1019.9 hPa 46% 0.0mm
03/02:30pm SE 8-14 kts 20.3°c 1020.1 hPa 47% 0.0mm
03/02:00pm SSE 9-15 kts 20.2°c 1020.3 hPa 47% 0.0mm
03/01:30pm SSE 10-17 kts 20.0°c 1020.5 hPa 46% 0.0mm
03/01:00pm SSE 10-15 kts 19.8°c 1020.8 hPa 49% 0.0mm
03/12:30pm SSE 10-16 kts 19.7°c 1021.3 hPa 46% 0.0mm
03/12:00pm SSE 11-17 kts 19.6°c 1021.7 hPa 48% 0.0mm
03/11:30am SSE 11-19 kts 18.9°c 1022.1 hPa 44% 0.0mm
03/11:00am S 12-17 kts 18.6°c 1022.3 hPa 46% 0.0mm
03/10:30am S 11-19 kts 18.0°c 1022.6 hPa 41% 0.0mm
03/10:00am S 13-19 kts 17.6°c 1022.9 hPa 40% 0.0mm
03/09:30am S 13-21 kts 17.1°c 1023.0 hPa 42% 0.0mm
03/09:00am S 12-19 kts 16.5°c 1022.9 hPa 46% 0.0mm
03/08:30am S 10-16 kts 15.9°c 1022.8 hPa 48% 0.0mm
03/08:00am S 11-17 kts 15.2°c 1022.3 hPa 49% 0.0mm
03/07:30am S 13-19 kts 14.7°c 1022.2 hPa 48% 0.0mm
03/07:00am S 15-22 kts 14.9°c 1021.7 hPa 45% 0.0mm
03/06:30am S 15-21 kts 14.8°c 1021.3 hPa 45% 0.0mm
03/06:00am S 15-23 kts 15.4°c 1020.9 hPa 41% 0.0mm
03/05:33am S 15-25 kts 15.4°c 1020.6 hPa 45% 0.0mm
03/05:30am S 16-25 kts 15.6°c 1020.5 hPa 44% 0.0mm
03/05:00am S 17-27 kts 16.0°c 1020.2 hPa 41% 0.0mm
03/04:43am S 16-26 kts 15.6°c 1020.2 hPa 45% 0.0mm
03/04:30am S 16-24 kts 16.1°c 1020.1 hPa 42% 0.0mm
03/04:00am S 15-22 kts 16.1°c 1020.1 hPa 44% 0.0mm
03/03:30am S 15-23 kts 16.6°c 1020.1 hPa 43% 0.0mm
03/03:00am S 11-17 kts 16.3°c 1020.1 hPa 49% 0.0mm
03/02:30am S 12-18 kts 17.0°c 1020.0 hPa 48% 0.0mm
03/02:00am S 13-20 kts 17.3°c 1020.2 hPa 46% 0.0mm
03/01:30am S 13-18 kts 17.6°c 1020.5 hPa 48% 0.0mm
03/01:00am S 11-17 kts 17.1°c 1020.8 hPa 55% 0.0mm
03/12:30am SW 7-11 kts 15.1°c 1020.8 hPa 74% 0.0mm
03/12:00am SW 7-9 kts 15.6°c 1020.9 hPa 72% 0.0mm
Time Wind Speed Temp Pressure Rel. Hum Rain
02/11:30pm SW 7-9 kts 15.9°c 1021.1 hPa 71% 0.0mm
02/11:00pm SW 7-10 kts 16.3°c 1021.2 hPa 73% 0.0mm
02/10:30pm SW 7-9 kts 17.0°c 1021.1 hPa 75% 0.0mm
02/10:00pm SSW 8-12 kts 18.6°c 1021.0 hPa 75% 0.0mm
02/09:30pm S 10-14 kts 19.5°c 1020.7 hPa 76% 0.0mm
02/09:00pm S 7-9 kts 18.7°c 1020.8 hPa 81% 0.0mm
02/08:30pm S 7-11 kts 20.0°c 1020.5 hPa 80% 0.0mm
02/08:00pm SSE 7-11 kts 20.2°c 1020.3 hPa 75% 0.0mm
02/07:30pm SE 5-7 kts 20.2°c 1020.1 hPa 73% 0.0mm
02/07:00pm SE 5-9 kts 20.5°c 1019.8 hPa 69% 0.0mm
02/06:30pm SE 6-9 kts 20.5°c 1019.5 hPa 70% 0.0mm
02/06:00pm SE 6-9 kts 20.7°c 1019.2 hPa 70% 0.0mm
02/05:30pm SSE 6-10 kts 20.5°c 1018.8 hPa 70% 0.0mm
02/05:00pm SE 6-10 kts 21.0°c 1018.4 hPa 67% 0.0mm
02/04:30pm SE 7-11 kts 21.6°c 1018.1 hPa 64% 0.0mm
02/04:00pm ESE 7-11 kts 22.0°c 1017.9 hPa 64% 0.0mm
02/03:30pm SE 7-11 kts 22.3°c 1017.7 hPa 62% 0.0mm
02/03:00pm ESE 8-13 kts 22.2°c 1017.7 hPa 57% 0.0mm
02/02:30pm SE 8-12 kts 22.4°c 1017.8 hPa 60% 0.0mm
02/02:00pm SSE 8-12 kts 22.6°c 1017.8 hPa 64% 0.0mm
02/01:30pm SE 8-13 kts 22.7°c 1018.3 hPa 61% 0.0mm
02/01:00pm SSE 8-15 kts 22.8°c 1018.6 hPa 62% 0.0mm
02/12:30pm SSE 10-15 kts 22.6°c 1019.0 hPa 65% 0.0mm
02/12:00pm SSE 8-14 kts 22.9°c 1019.3 hPa 69% 0.0mm
02/11:30am SSE 8-14 kts 22.9°c 1019.4 hPa 64% 0.0mm
02/11:00am SSE 8-13 kts 22.7°c 1019.8 hPa 69% 0.0mm
02/10:30am SSE 7-11 kts 21.9°c 1020.1 hPa 72% 0.0mm
02/10:00am SSE 6-9 kts 22.2°c 1019.9 hPa 72% 0.0mm
02/09:30am WSW 3-4 kts 21.8°c 1019.8 hPa 72% 0.0mm
02/09:00am WSW 5-6 kts 19.8°c 1019.7 hPa 80% 0.2mm
02/08:30am WSW 5-6 kts 18.6°c 1019.6 hPa 87% 0.2mm
02/08:00am WSW 8-11 kts 17.8°c 1019.4 hPa 88% 0.2mm
02/07:30am SW 7-10 kts 17.0°c 1019.0 hPa 90% 0.2mm
02/07:00am WNW 4-6 kts 16.6°c 1018.4 hPa 91% 0.0mm
02/06:30am W 5-7 kts 15.9°c 1018.1 hPa 93% 0.0mm
02/06:00am WSW 7-10 kts 15.7°c 1017.8 hPa 93% 0.0mm
02/05:30am WSW 7-8 kts 16.0°c 1017.4 hPa 94% 0.0mm
02/05:00am WSW 6-7 kts 15.9°c 1017.0 hPa 93% 0.0mm
02/04:30am W 6-8 kts 16.1°c 1016.9 hPa 93% 0.0mm
02/04:00am WSW 7-9 kts 16.0°c 1016.8 hPa 93% 0.0mm
02/03:30am W 5-7 kts 16.9°c 1016.6 hPa 91% 0.0mm
02/03:00am WNW 4-5 kts 17.8°c 1016.7 hPa 89% 0.0mm
02/02:30am W 4-5 kts 17.7°c 1016.9 hPa 89% 0.0mm
02/02:00am WNW 4-5 kts 17.5°c 1017.2 hPa 90% 0.0mm
02/01:30am W 5-7 kts 17.1°c 1017.6 hPa 92% 0.0mm
02/01:00am W 6-7 kts 17.1°c 1017.7 hPa 92% 0.0mm
02/12:30am W 5-6 kts 17.4°c 1017.8 hPa 92% 0.0mm
02/12:00am W 5-7 kts 18.0°c 1017.8 hPa 92% 0.0mm